Tracking 18980 objects as of 18-Feb-2018
HD Live streaming from Space Station
objects crossing your sky now

TDRS 8

Track TDRS 8 now!
TDRS 8 is classified as:


NORAD ID: 26388
Int'l Code: 2000-034A
Perigee: 35,750.5 km
Apogee: 35,838.4 km
Inclination: 7.9 °
Period: 1,436.1 minutes
Semi major axis: 42165 km
RCS: 25.9293 m2 (large)
Launch date: June 30, 2000
Source: United States (US)
Launch site: AIR FORCE EASTERN TEST RANGE (AFETR)

Tracking and communications with space shuttle, other missions.
aabbcc
Your satellite tracking list
Your tracking list is empty




NASA's NSSDC Master Catalog

Two Line Element Set (TLE):
1 26388U 00034A   18047.49495440 -.00000233 +00000-0 +00000-0 0  9992
2 26388 007.8937 053.8176 0010424 268.8837 091.1440 01.00269313064673
Source of the keplerian elements: AFSPC